EW6287 Weather Reports


time (UTC)temp
F
wind
direction
speed
knots
gust
knots
rain 1hr
in
rain 24hr
in
rain mn
in
humidity
%
barometer
mb
20260901000030 77 0.0 0.0 0.00 0.00 0.00 47 1008.3
20260831234526 78 0.0 0.0 0.00 0.00 0.00 44 1008.1
20260831233025 78 0.0 0.0 0.00 0.00 0.00 44 1008.4
20260831231525 79 0.0 0.0 0.00 0.00 0.00 40 1008.3
20260831230025 80 0.0 0.0 0.00 0.00 0.00 42 1008.3
20260831224525 80 0.0 0.0 0.00 0.00 0.00 43 1008.2
20260831223026 82 0.0 0.0 0.00 0.00 0.00 43 1008.3
20260831221523 82 0.0 0.0 0.00 0.00 0.00 42 1008.1
20260831220024 83 0.0 0.0 0.00 0.00 0.00 43 1007.9
20260831214525 83 0.0 0.0 0.00 0.00 0.00 40 1008.2
20260831213025 84 0.0 0.0 0.00 0.00 0.00 41 1008.2
20260831211523 83 0.0 0.0 0.00 0.00 0.00 42 1008.4
20260831210022 84 0.0 0.0 0.00 0.00 0.00 39 1008.6
20260831204521 84 0.0 0.0 0.00 0.00 0.00 40 1008.4
20260831203020 84 0.0 0.0 0.00 0.00 0.00 40 1008.5
20260831201521 84 0.0 0.0 0.00 0.00 0.00 40 1008.3
20260831200028 84 0.0 0.0 0.00 0.00 0.00 44 1008.7
20260831194525 83 0.0 0.0 0.00 0.00 0.00 41 1008.5
20260831193016 84 0.0 0.0 0.00 0.00 0.00 42 1008.3
20260831191514 83 0.0 0.0 0.00 0.00 0.00 43 1008.6
20260831190020 83 0.0 0.0 0.00 0.00 0.00 44 1008.6
20260831184509 82 0.0 0.0 0.00 0.00 0.00 46 1008.6
20260831183011 82 0.0 0.0 0.00 0.00 0.00 48 1008.4
20260831181508 82 0.0 0.0 0.00 0.00 0.00 52 1009.1
20260831180011 81 0.0 0.0 0.00 0.00 0.00 58 1009.0
20260831174502 80 0.0 0.0 0.00 0.00 0.00 59 1008.9
20260831173105 79 0.0 0.0 0.00 0.00 0.00 58 1009.0
20260831171559 79 0.0 0.0 0.00 0.00 0.00 59 1008.9
20260831170057 78 0.0 0.0 0.00 0.00 0.00 62 1008.7
20260831164554 77 0.0 0.0 0.00 0.00 0.00 63 1008.8
20260831163051 77 0.0 0.0 0.00 0.00 0.00 67 1008.7
20260831161548 76 0.0 0.0 0.00 0.00 0.00 68 1008.7
20260831160025 75 0.0 0.0 0.00 0.00 0.00 73 1008.8
20260831154522 73 0.0 0.0 0.00 0.00 0.00 74 1008.5
20260831153041 73 0.0 0.0 0.00 0.00 0.00 77 1008.3
20260831151542 72 0.0 0.0 0.00 0.00 0.00 80 1007.9
20260831150036 71 0.0 0.0 0.00 0.00 0.00 82 1008.2
20260831144533 71 0.0 0.0 0.00 0.00 0.00 84 1008.0
20260831143032 70 0.0 0.0 0.00 0.00 0.00 86 1007.8
20260831141529 69 0.0 0.0 0.00 0.00 0.00 87 1008.3
20260831140035 69 0.0 0.0 0.00 0.00 0.00 89 1007.9
20260831134526 69 0.0 0.0 0.00 0.00 0.00 92 1007.4
20260831133024 69 0.0 0.0 0.00 0.00 0.00 96 1006.8
20260831131523 69 0.0 0.0 0.00 0.00 0.00 97 1006.8
20260831130022 69 0.0 0.0 0.00 0.00 0.00 98 1006.5
20260831124520 69 0.0 0.0 0.00 0.00 0.00 97 1006.4
20260831123020 69 0.0 0.0 0.00 0.00 0.00 97 1006.3
20260831121521 69 0.0 0.0 0.00 0.00 0.00 97 1006.1
20260831120018 68 0.0 0.0 0.00 0.00 0.00 97 1005.9
20260831114517 68 0.0 0.0 0.00 0.00 0.00 97 1005.4
20260831113017 68 0.0 0.0 0.00 0.00 0.00 97 1005.1
20260831111516 68 0.0 0.0 0.00 0.00 0.00 97 1004.8
20260831110015 68 0.0 0.0 0.00 0.00 0.00 97 1004.7
20260831104519 68 0.0 0.0 0.00 0.00 0.00 97 1004.7
20260831103014 68 0.0 0.0 0.00 0.00 0.00 97 1004.5
20260831101514 68 0.0 0.0 0.00 0.00 0.00 97 1004.3
20260831100014 68 0.0 0.0 0.00 0.00 0.00 97 1004.6
20260831094514 68 0.0 0.0 0.00 0.00 0.00 97 1004.7
20260831093014 68 0.0 0.0 0.00 0.00 0.00 97 1004.4
20260831091513 68 0.0 0.0 0.00 0.00 0.00 97 1004.1
20260831090013 68 0.0 0.0 0.00 0.00 0.00 97 1004.6
20260831084515 67 0.0 0.0 0.00 0.00 0.00 97 1004.4
20260831083011 67 0.0 0.0 0.00 0.00 0.00 97 1004.3
20260831081511 67 0.0 0.0 0.00 0.00 0.00 97 1004.5
20260831080009 67 0.0 0.0 0.00 0.00 0.00 96 1004.6
20260831074511 67 0.0 0.0 0.00 0.00 0.00 96 1004.7
20260831073047 67 0.0 0.0 0.00 0.00 0.00 96 1004.6
20260831071547 67 0.0 0.0 0.00 0.00 0.00 96 1004.9
20260831070051 67 0.0 0.0 0.00 0.00 0.00 96 1004.7
20260831064540 67 0.0 0.0 0.00 0.00 0.00 96 1004.6
20260831063109 67 0.0 0.0 0.00 0.00 0.00 95 1005.1
20260831061538 67 0.0 0.0 0.00 0.00 0.00 95 1004.9
20260831060038 67 0.0 0.0 0.00 0.00 0.00 95 1004.4
20260831054542 67 0.0 0.0 0.00 0.00 0.00 95 1004.7
20260831053041 67 0.0 0.0 0.00 0.00 0.00 94 1004.8
20260831051538 67 0.0 0.0 0.00 0.00 0.00 94 1005.1
20260831050010 67 0.0 0.0 0.00 0.00 0.00 94 1005.6
20260831044510 67 0.0 0.0 0.00 0.00 0.00 94 1006.0
20260831043132 67 0.0 0.0 0.00 0.00 0.00 94 1006.1
20260831041515 67 0.0 0.0 0.00 0.00 0.00 94 1006.3
20260831040016 67 0.0 0.0 0.00 0.00 0.00 94 1006.7
20260831034514 67 0.0 0.0 0.00 0.00 0.00 94 1006.8
20260831033024 68 0.0 0.0 0.00 0.00 0.00 94 1007.4
20260831031515 67 0.0 0.0 0.00 0.00 0.00 94 1007.6
20260831030013 67 0.0 0.0 0.00 0.00 0.00 95 1007.2
20260831024513 67 0.0 0.0 0.00 0.00 0.00 94 1006.7
20260831023013 68 0.0 0.0 0.00 0.00 0.00 93 1006.9
20260831021553 68 0.0 0.0 0.00 0.00 0.00 93 1006.7
20260831020107 68 0.0 0.0 0.00 0.00 0.00 92 1006.6
20260831020004 68 0.0 0.0 0.00 0.00 0.00 91 1006.6
20260831014557 69 0.0 0.0 0.00 0.00 0.00 90 1006.3
20260831013100 69 0.0 0.0 0.00 0.00 0.00 89 1006.2
20260831011557 69 0.0 0.0 0.00 0.00 0.00 89 1006.0
20260831010055 69 0.0 0.0 0.00 0.00 0.00 88 1005.8
20260831004559 70 0.0 0.0 0.00 0.00 0.00 88 1006.0
20260831003056 70 0.0 0.0 0.00 0.00 0.00 87 1006.0
20260831001555 71 0.0 0.0 0.00 0.00 0.00 86 1006.0